Year,Month,Day,Hour,Minute,Value (Times are PST for temperature in C)
2016,06,05,00,00,19.70
2016,06,05,00,01,19.70
2016,06,05,00,02,19.70
2016,06,05,00,03,19.70
2016,06,05,00,04,19.70
2016,06,05,00,05,19.70
2016,06,05,00,06,19.70
2016,06,05,00,07,19.80
2016,06,05,00,08,19.80
2016,06,05,00,09,19.80
2016,06,05,00,10,19.80
2016,06,05,00,11,19.80
2016,06,05,00,12,19.80
2016,06,05,00,13,19.70
2016,06,05,00,14,19.70
2016,06,05,00,15,19.70
2016,06,05,00,16,19.70
2016,06,05,00,17,19.70
2016,06,05,00,18,19.70
2016,06,05,00,19,19.70
2016,06,05,00,20,19.70
2016,06,05,00,21,19.60
2016,06,05,00,22,19.60
2016,06,05,00,23,19.60
2016,06,05,00,24,19.60
2016,06,05,00,25,19.50
2016,06,05,00,26,19.50
2016,06,05,00,27,19.50
2016,06,05,00,28,19.40
2016,06,05,00,29,19.40
2016,06,05,00,30,19.40
2016,06,05,00,31,19.40
2016,06,05,00,32,19.30
2016,06,05,00,33,19.30
2016,06,05,00,34,19.30
2016,06,05,00,35,19.30
2016,06,05,00,36,19.30
2016,06,05,00,37,19.20
2016,06,05,00,38,19.20
2016,06,05,00,39,19.20
2016,06,05,00,40,19.10
2016,06,05,00,41,19.10
2016,06,05,00,42,19.10
2016,06,05,00,43,19.10
2016,06,05,00,44,19.10
2016,06,05,00,45,19.10
2016,06,05,00,46,19.00
2016,06,05,00,47,19.00
2016,06,05,00,48,19.00
2016,06,05,00,49,18.90
2016,06,05,00,50,18.90
2016,06,05,00,51,18.90
2016,06,05,00,52,18.80
2016,06,05,00,53,18.80
2016,06,05,00,54,18.80
2016,06,05,00,55,18.70
2016,06,05,00,56,18.70
2016,06,05,00,57,18.70
2016,06,05,00,58,18.70
2016,06,05,00,59,18.60
2016,06,05,01,00,18.60
2016,06,05,01,01,18.60
2016,06,05,01,02,18.60
2016,06,05,01,03,18.60
2016,06,05,01,04,18.60
2016,06,05,01,05,18.60
2016,06,05,01,06,18.60
2016,06,05,01,07,18.60
2016,06,05,01,08,18.50
2016,06,05,01,09,18.50
2016,06,05,01,10,18.40
2016,06,05,01,11,18.40
2016,06,05,01,12,18.40
2016,06,05,01,13,18.30
2016,06,05,01,14,18.30
2016,06,05,01,15,18.20
2016,06,05,01,16,18.20
2016,06,05,01,17,18.10
2016,06,05,01,18,18.10
2016,06,05,01,19,18.10
2016,06,05,01,20,18.00
2016,06,05,01,21,18.00
2016,06,05,01,22,17.90
2016,06,05,01,23,17.80
2016,06,05,01,24,17.80
2016,06,05,01,25,17.80
2016,06,05,01,26,17.70
2016,06,05,01,27,17.70
2016,06,05,01,28,17.60
2016,06,05,01,29,17.60
2016,06,05,01,30,17.50
2016,06,05,01,31,17.50
2016,06,05,01,32,17.40
2016,06,05,01,33,17.40
2016,06,05,01,34,17.30
2016,06,05,01,35,17.30
2016,06,05,01,36,17.30
2016,06,05,01,37,17.30
2016,06,05,01,38,17.20
2016,06,05,01,39,17.20
2016,06,05,01,40,17.20
2016,06,05,01,41,17.10
2016,06,05,01,42,17.10
2016,06,05,01,43,17.10
2016,06,05,01,44,17.00
2016,06,05,01,45,17.00
2016,06,05,01,46,17.00
2016,06,05,01,47,16.90
2016,06,05,01,48,16.90
2016,06,05,01,49,16.90
2016,06,05,01,50,16.90
2016,06,05,01,51,16.90
2016,06,05,01,52,16.90
2016,06,05,01,53,16.90
2016,06,05,01,54,16.80
2016,06,05,01,55,16.80
2016,06,05,01,56,16.80
2016,06,05,01,57,16.80
2016,06,05,01,58,16.80
2016,06,05,01,59,16.80
2016,06,05,02,00,16.80
2016,06,05,02,01,16.80
2016,06,05,02,02,16.80
2016,06,05,02,03,16.80
2016,06,05,02,04,16.80
2016,06,05,02,05,16.80
2016,06,05,02,06,16.80
2016,06,05,02,07,16.80
2016,06,05,02,08,16.80
2016,06,05,02,09,16.80
2016,06,05,02,10,16.80
2016,06,05,02,11,16.80
2016,06,05,02,12,16.80
2016,06,05,02,13,16.80
2016,06,05,02,14,16.80
2016,06,05,02,15,16.70
2016,06,05,02,16,16.70
2016,06,05,02,17,16.70
2016,06,05,02,18,16.70
2016,06,05,02,19,16.70
2016,06,05,02,20,16.70
2016,06,05,02,21,16.70
2016,06,05,02,22,16.70
2016,06,05,02,23,16.70
2016,06,05,02,24,16.70
2016,06,05,02,25,16.70
2016,06,05,02,26,16.70
2016,06,05,02,27,16.70
2016,06,05,02,28,16.70
2016,06,05,02,29,16.70
2016,06,05,02,30,16.70
2016,06,05,02,31,16.60
2016,06,05,02,32,16.60
2016,06,05,02,33,16.60
2016,06,05,02,34,16.60
2016,06,05,02,35,16.50
2016,06,05,02,36,16.50
2016,06,05,02,37,16.40
2016,06,05,02,38,16.40
2016,06,05,02,39,16.40
2016,06,05,02,40,16.40
2016,06,05,02,41,16.40
2016,06,05,02,42,16.40
2016,06,05,02,43,16.40
2016,06,05,02,44,16.40
2016,06,05,02,45,16.30
2016,06,05,02,46,16.30
2016,06,05,02,47,16.30
2016,06,05,02,48,16.30
2016,06,05,02,49,16.30
2016,06,05,02,50,16.30
2016,06,05,02,51,16.30
2016,06,05,02,52,16.20
2016,06,05,02,53,16.20
2016,06,05,02,54,16.20
2016,06,05,02,55,16.20
2016,06,05,02,56,16.20
2016,06,05,02,57,16.20
2016,06,05,02,58,16.20
2016,06,05,02,59,16.20
2016,06,05,03,00,16.20
2016,06,05,03,01,16.20
2016,06,05,03,02,16.20
2016,06,05,03,03,16.20
2016,06,05,03,04,16.20
2016,06,05,03,05,16.20
2016,06,05,03,06,16.20
2016,06,05,03,07,16.20
2016,06,05,03,08,16.20
2016,06,05,03,09,16.20
2016,06,05,03,10,16.20
2016,06,05,03,11,16.20
2016,06,05,03,12,16.20
2016,06,05,03,13,16.20
2016,06,05,03,14,16.20
2016,06,05,03,15,16.20
2016,06,05,03,16,16.20
2016,06,05,03,17,16.20
2016,06,05,03,18,16.20
2016,06,05,03,19,16.20
2016,06,05,03,20,16.20
2016,06,05,03,21,16.30
2016,06,05,03,22,16.30
2016,06,05,03,23,16.30
2016,06,05,03,24,16.30
2016,06,05,03,25,16.30
2016,06,05,03,26,16.30
2016,06,05,03,27,16.20
2016,06,05,03,28,16.20
2016,06,05,03,29,16.20
2016,06,05,03,30,16.20
2016,06,05,03,31,16.20
2016,06,05,03,32,16.20
2016,06,05,03,33,16.10
2016,06,05,03,34,16.10
2016,06,05,03,35,16.10
2016,06,05,03,36,16.00
2016,06,05,03,37,16.00
2016,06,05,03,38,16.00
2016,06,05,03,39,15.90
2016,06,05,03,40,15.90
2016,06,05,03,41,15.90
2016,06,05,03,42,15.90
2016,06,05,03,43,15.90
2016,06,05,03,44,15.90
2016,06,05,03,45,15.90
2016,06,05,03,46,15.90
2016,06,05,03,47,15.90
2016,06,05,03,48,15.90
2016,06,05,03,49,15.90
2016,06,05,03,50,15.90
2016,06,05,03,51,15.90
2016,06,05,03,52,15.90
2016,06,05,03,53,15.90
2016,06,05,03,54,15.90
2016,06,05,03,55,15.90
2016,06,05,03,56,15.90
2016,06,05,03,57,15.90
2016,06,05,03,58,15.90
2016,06,05,03,59,15.90
2016,06,05,04,00,15.90
2016,06,05,04,01,15.90
2016,06,05,04,02,15.90
2016,06,05,04,04,15.90
2016,06,05,04,05,15.90
2016,06,05,04,06,15.90
2016,06,05,04,07,15.80
2016,06,05,04,08,15.90
2016,06,05,04,09,15.90
2016,06,05,04,10,15.90
2016,06,05,04,11,15.90
2016,06,05,04,12,15.90
2016,06,05,04,13,15.90
2016,06,05,04,14,15.90
2016,06,05,04,15,15.90
2016,06,05,04,16,15.90
2016,06,05,04,17,15.90
2016,06,05,04,18,15.90
2016,06,05,04,19,15.80
2016,06,05,04,20,15.80
2016,06,05,04,21,15.80
2016,06,05,04,22,15.80
2016,06,05,04,23,15.80
2016,06,05,04,24,15.80
2016,06,05,04,25,15.80
2016,06,05,04,26,15.80
2016,06,05,04,27,15.80
2016,06,05,04,28,15.70
2016,06,05,04,29,15.70
2016,06,05,04,30,15.70
2016,06,05,04,31,15.70
2016,06,05,04,32,15.70
2016,06,05,04,33,15.70
2016,06,05,04,34,15.70
2016,06,05,04,35,15.70
2016,06,05,04,36,15.60
2016,06,05,04,37,15.60
2016,06,05,04,38,15.60
2016,06,05,04,39,15.50
2016,06,05,04,40,15.50
2016,06,05,04,41,15.40
2016,06,05,04,42,15.40
2016,06,05,04,43,15.40
2016,06,05,04,44,15.40
2016,06,05,04,45,15.40
2016,06,05,04,46,15.40
2016,06,05,04,47,15.40
2016,06,05,04,48,15.40
2016,06,05,04,49,15.40
2016,06,05,04,50,15.30
2016,06,05,04,51,15.30
2016,06,05,04,52,15.30
2016,06,05,04,53,15.30
2016,06,05,04,54,15.30
2016,06,05,04,55,15.30
2016,06,05,04,56,15.30
2016,06,05,04,57,15.30
2016,06,05,04,58,15.30
2016,06,05,04,59,15.30
2016,06,05,05,00,15.30
2016,06,05,05,01,15.30
2016,06,05,05,02,15.20
2016,06,05,05,03,15.30
2016,06,05,05,04,15.30
2016,06,05,05,05,15.30
2016,06,05,05,06,15.20
2016,06,05,05,07,15.20
2016,06,05,05,08,15.20
2016,06,05,05,09,15.30
2016,06,05,05,10,15.30
2016,06,05,05,11,15.30
2016,06,05,05,12,15.30
2016,06,05,05,13,15.40
2016,06,05,05,14,15.40
2016,06,05,05,15,15.40
2016,06,05,05,16,15.40
2016,06,05,05,17,15.50
2016,06,05,05,18,15.50
2016,06,05,05,19,15.50
2016,06,05,05,20,15.50
2016,06,05,05,21,15.50
2016,06,05,05,22,15.50
2016,06,05,05,23,15.50
2016,06,05,05,24,15.40
2016,06,05,05,25,15.40
2016,06,05,05,26,15.40
2016,06,05,05,27,15.40
2016,06,05,05,28,15.40
2016,06,05,05,29,15.40
2016,06,05,05,30,15.40
2016,06,05,05,31,15.30
2016,06,05,05,32,15.20
2016,06,05,05,33,15.20
2016,06,05,05,34,15.10
2016,06,05,05,35,15.10
2016,06,05,05,36,15.00
2016,06,05,05,37,15.00
2016,06,05,05,38,14.90
2016,06,05,05,39,14.90
2016,06,05,05,40,14.90
2016,06,05,05,41,14.90
2016,06,05,05,42,14.80
2016,06,05,05,43,14.80
2016,06,05,05,44,14.80
2016,06,05,05,45,14.80
2016,06,05,05,46,14.70
2016,06,05,05,47,14.70
2016,06,05,05,48,14.70
2016,06,05,05,49,14.70
2016,06,05,05,50,14.70
2016,06,05,05,51,14.60
2016,06,05,05,52,14.60
2016,06,05,05,53,14.60
2016,06,05,05,54,14.60
2016,06,05,05,55,14.60
2016,06,05,05,56,14.60
2016,06,05,05,57,14.60
2016,06,05,05,58,14.60
2016,06,05,05,59,14.60
2016,06,05,06,00,14.60
2016,06,05,06,01,14.60
2016,06,05,06,02,14.60
2016,06,05,06,03,14.60
2016,06,05,06,04,14.60
2016,06,05,06,05,14.60
2016,06,05,06,06,14.60
2016,06,05,06,07,14.60
2016,06,05,06,08,14.60
2016,06,05,06,09,14.70
2016,06,05,06,10,14.70
2016,06,05,06,11,14.70
2016,06,05,06,12,14.70
2016,06,05,06,13,14.80
2016,06,05,06,14,14.80
2016,06,05,06,15,14.80
2016,06,05,06,16,14.80
2016,06,05,06,17,14.80
2016,06,05,06,18,14.80
2016,06,05,06,19,14.90
2016,06,05,06,20,14.90
2016,06,05,06,21,14.90
2016,06,05,06,22,14.90
2016,06,05,06,23,15.00
2016,06,05,06,24,15.00
2016,06,05,06,25,15.10
2016,06,05,06,26,15.20
2016,06,05,06,27,15.30
2016,06,05,06,28,15.30
2016,06,05,06,29,15.40
2016,06,05,06,30,15.50
2016,06,05,06,31,15.60
2016,06,05,06,32,15.60
2016,06,05,06,33,15.70
2016,06,05,06,34,15.80
2016,06,05,06,35,15.90
2016,06,05,06,36,16.00
2016,06,05,06,37,16.00
2016,06,05,06,38,16.10
2016,06,05,06,39,16.20
2016,06,05,06,40,16.20
2016,06,05,06,41,16.30
2016,06,05,06,42,16.40
2016,06,05,06,43,16.40
2016,06,05,06,44,16.40
2016,06,05,06,45,16.50
2016,06,05,06,46,16.50
2016,06,05,06,47,16.50
2016,06,05,06,48,16.40
2016,06,05,06,49,16.40
2016,06,05,06,50,16.40
2016,06,05,06,51,16.40
2016,06,05,06,52,16.40
2016,06,05,06,53,16.40
2016,06,05,06,54,16.40
2016,06,05,06,55,16.40
2016,06,05,06,56,16.50
2016,06,05,06,57,16.50
2016,06,05,06,58,16.50
2016,06,05,06,59,16.50
2016,06,05,07,00,16.50
2016,06,05,07,01,16.60
2016,06,05,07,02,16.60
2016,06,05,07,03,16.60
2016,06,05,07,04,16.60
2016,06,05,07,05,16.70
2016,06,05,07,06,16.70
2016,06,05,07,07,16.70
2016,06,05,07,08,16.70
2016,06,05,07,09,16.70
2016,06,05,07,10,16.80
2016,06,05,07,11,16.80
2016,06,05,07,12,16.80
2016,06,05,07,13,16.80
2016,06,05,07,14,16.80
2016,06,05,07,15,16.80
2016,06,05,07,16,16.80
2016,06,05,07,17,16.80
2016,06,05,07,18,16.80
2016,06,05,07,19,16.80
2016,06,05,07,20,16.80
2016,06,05,07,21,16.80
2016,06,05,07,22,16.80
2016,06,05,07,23,16.90
2016,06,05,07,24,16.90
2016,06,05,07,25,16.90
2016,06,05,07,26,16.90
2016,06,05,07,27,17.00
2016,06,05,07,28,17.00
2016,06,05,07,29,17.10
2016,06,05,07,30,17.10
2016,06,05,07,31,17.20
2016,06,05,07,32,17.20
2016,06,05,07,33,17.30
2016,06,05,07,34,17.40
2016,06,05,07,35,17.50
2016,06,05,07,36,17.60
2016,06,05,07,37,17.60
2016,06,05,07,38,17.60
2016,06,05,07,39,17.50
2016,06,05,07,40,17.40
2016,06,05,07,41,17.30
2016,06,05,07,42,17.10
2016,06,05,07,43,17.00
2016,06,05,07,44,17.00
2016,06,05,07,45,17.00
2016,06,05,07,46,17.00
2016,06,05,07,47,17.00
2016,06,05,07,48,17.10
2016,06,05,07,49,17.00
2016,06,05,07,50,17.00
2016,06,05,07,51,16.90
2016,06,05,07,52,16.90
2016,06,05,07,53,16.80
2016,06,05,07,54,16.80
2016,06,05,07,55,16.70
2016,06,05,07,56,16.70
2016,06,05,07,57,16.70
2016,06,05,07,58,16.70
2016,06,05,07,59,16.80
2016,06,05,08,00,16.80
2016,06,05,08,01,16.90
2016,06,05,08,02,17.00
2016,06,05,08,03,17.10
2016,06,05,08,04,17.10
2016,06,05,08,05,17.20
2016,06,05,08,06,17.30
2016,06,05,08,07,17.30
2016,06,05,08,08,17.40
2016,06,05,08,09,17.60
2016,06,05,08,10,17.60
2016,06,05,08,11,17.70
2016,06,05,08,12,17.80
2016,06,05,08,13,17.90
2016,06,05,08,14,18.00
2016,06,05,08,15,18.10
2016,06,05,08,16,18.10
2016,06,05,08,17,18.20
2016,06,05,08,18,18.30
2016,06,05,08,19,18.30
2016,06,05,08,20,18.40
2016,06,05,08,21,18.50
2016,06,05,08,22,18.60
2016,06,05,08,23,18.60
2016,06,05,08,24,18.70
2016,06,05,08,25,18.70
2016,06,05,08,26,18.60
2016,06,05,08,27,18.60
2016,06,05,08,28,18.50
2016,06,05,08,29,18.50
2016,06,05,08,30,18.50
2016,06,05,08,31,18.50
2016,06,05,08,32,18.50
2016,06,05,08,33,18.40
2016,06,05,08,34,18.40
2016,06,05,08,35,18.40
2016,06,05,08,36,18.30
2016,06,05,08,37,18.20
2016,06,05,08,38,18.20
2016,06,05,08,39,18.20
2016,06,05,08,40,18.20
2016,06,05,08,41,18.20
2016,06,05,08,42,18.20
2016,06,05,08,43,18.20
2016,06,05,08,44,18.30
2016,06,05,08,45,18.40
2016,06,05,08,46,18.50
2016,06,05,08,47,18.60
2016,06,05,08,48,18.60
2016,06,05,08,49,18.70
2016,06,05,08,50,18.80
2016,06,05,08,51,19.00
2016,06,05,08,52,19.00
2016,06,05,08,53,19.10
2016,06,05,08,54,19.10
2016,06,05,08,55,19.00
2016,06,05,08,56,19.00
2016,06,05,08,57,18.90
2016,06,05,08,58,18.80
2016,06,05,08,59,18.80
2016,06,05,09,00,18.80
2016,06,05,09,01,18.80
2016,06,05,09,02,18.80
2016,06,05,09,03,18.90
2016,06,05,09,04,18.90
2016,06,05,09,05,18.90
2016,06,05,09,06,18.90
2016,06,05,09,07,18.90
2016,06,05,09,08,18.90
2016,06,05,09,09,19.00
2016,06,05,09,10,19.00
2016,06,05,09,11,19.10
2016,06,05,09,12,19.20
2016,06,05,09,13,19.30
2016,06,05,09,14,19.40
2016,06,05,09,15,19.40
2016,06,05,09,16,19.40
2016,06,05,09,17,19.40
2016,06,05,09,18,19.40
2016,06,05,09,19,19.40
2016,06,05,09,20,19.40
2016,06,05,09,21,19.50
2016,06,05,09,22,19.50
2016,06,05,09,23,19.60
2016,06,05,09,24,19.60
2016,06,05,09,25,19.70
2016,06,05,09,26,19.80
2016,06,05,09,27,19.90
2016,06,05,09,28,20.10
2016,06,05,09,29,20.10
2016,06,05,09,30,20.20
2016,06,05,09,31,20.10
2016,06,05,09,32,20.00
2016,06,05,09,33,20.00
2016,06,05,09,34,19.90
2016,06,05,09,35,19.90
2016,06,05,09,36,19.90
2016,06,05,09,37,19.80
2016,06,05,09,38,19.80
2016,06,05,09,39,19.80
2016,06,05,09,40,19.80
2016,06,05,09,41,19.80
2016,06,05,09,42,19.80
2016,06,05,09,43,19.90
2016,06,05,09,44,20.00
2016,06,05,09,45,20.20
2016,06,05,09,46,20.30
2016,06,05,09,47,20.30
2016,06,05,09,48,20.40
2016,06,05,09,49,20.40
2016,06,05,09,50,20.50
2016,06,05,09,51,20.60
2016,06,05,09,52,20.70
2016,06,05,09,53,20.80
2016,06,05,09,54,20.90
2016,06,05,09,55,21.10
2016,06,05,09,56,21.20
2016,06,05,09,57,21.30
2016,06,05,09,58,21.30
2016,06,05,09,59,21.30
2016,06,05,10,00,21.20
2016,06,05,10,01,21.20
2016,06,05,10,02,21.30
2016,06,05,10,03,21.30
2016,06,05,10,04,21.30
2016,06,05,10,05,21.30
2016,06,05,10,06,21.40
2016,06,05,10,07,21.40
2016,06,05,10,08,21.50
2016,06,05,10,09,21.60
2016,06,05,10,10,21.80
2016,06,05,10,11,21.90
2016,06,05,10,12,22.00
2016,06,05,10,13,22.00
2016,06,05,10,14,22.00
2016,06,05,10,15,22.10
2016,06,05,10,16,22.10
2016,06,05,10,17,22.20
2016,06,05,10,18,22.20
2016,06,05,10,19,22.10
2016,06,05,10,20,22.10
2016,06,05,10,21,22.20
2016,06,05,10,22,22.20
2016,06,05,10,23,22.20
2016,06,05,10,24,22.30
2016,06,05,10,25,22.50
2016,06,05,10,26,22.50
2016,06,05,10,27,22.60
2016,06,05,10,28,22.60
2016,06,05,10,29,22.60
2016,06,05,10,30,22.60
2016,06,05,10,31,22.60
2016,06,05,10,32,22.60
2016,06,05,10,33,22.50
2016,06,05,10,34,22.50
2016,06,05,10,35,22.50
2016,06,05,10,36,22.50
2016,06,05,10,37,22.60
2016,06,05,10,38,22.70
2016,06,05,10,39,22.90
2016,06,05,10,40,23.00
2016,06,05,10,41,23.10
2016,06,05,10,42,23.20
2016,06,05,10,43,23.30
2016,06,05,10,44,23.40
2016,06,05,10,45,23.50
2016,06,05,10,46,23.60
2016,06,05,10,47,23.70
2016,06,05,10,48,23.80
2016,06,05,10,49,23.90
2016,06,05,10,50,24.00
2016,06,05,10,51,24.00
2016,06,05,10,52,24.00
2016,06,05,10,53,23.90
2016,06,05,10,54,23.90
2016,06,05,10,55,23.80
2016,06,05,10,56,23.70
2016,06,05,10,57,23.70
2016,06,05,10,58,23.60
2016,06,05,10,59,23.50
2016,06,05,11,00,23.40
2016,06,05,11,01,23.40
2016,06,05,11,02,23.40
2016,06,05,11,03,23.30
2016,06,05,11,04,23.30
2016,06,05,11,05,23.20
2016,06,05,11,06,23.20
2016,06,05,11,07,23.20
2016,06,05,11,08,23.10
2016,06,05,11,09,23.10
2016,06,05,11,10,23.20
2016,06,05,11,11,23.20
2016,06,05,11,12,23.30
2016,06,05,11,13,23.30
2016,06,05,11,14,23.40
2016,06,05,11,15,23.40
2016,06,05,11,16,23.40
2016,06,05,11,17,23.40
2016,06,05,11,18,23.40
2016,06,05,11,19,23.40
2016,06,05,11,20,23.40
2016,06,05,11,21,23.50
2016,06,05,11,22,23.60
2016,06,05,11,23,23.70
2016,06,05,11,24,23.80
2016,06,05,11,25,23.80
2016,06,05,11,26,23.90
2016,06,05,11,27,23.90
2016,06,05,11,28,23.90
2016,06,05,11,29,23.80
2016,06,05,11,30,23.80
2016,06,05,11,31,23.80
2016,06,05,11,32,23.70
2016,06,05,11,33,23.70
2016,06,05,11,34,23.70
2016,06,05,11,35,23.70
2016,06,05,11,36,23.70
2016,06,05,11,37,23.70
2016,06,05,11,38,23.70
2016,06,05,11,39,23.80
2016,06,05,11,40,23.80
2016,06,05,11,41,23.90
2016,06,05,11,42,23.90
2016,06,05,11,43,24.00
2016,06,05,11,44,24.10
2016,06,05,11,45,24.20
2016,06,05,11,46,24.20
2016,06,05,11,47,24.30
2016,06,05,11,48,24.30
2016,06,05,11,49,24.30
2016,06,05,11,50,24.30
2016,06,05,11,51,24.40
2016,06,05,11,52,24.50
2016,06,05,11,53,24.60
2016,06,05,11,54,24.60
2016,06,05,11,55,24.60
2016,06,05,11,56,24.60
2016,06,05,11,57,24.70
2016,06,05,11,58,24.80
2016,06,05,11,59,24.80
2016,06,05,12,00,24.80
2016,06,05,12,01,24.80
2016,06,05,12,02,24.80
2016,06,05,12,03,24.80
2016,06,05,12,04,24.80
2016,06,05,12,05,24.70
2016,06,05,12,06,24.70
2016,06,05,12,07,24.80
2016,06,05,12,08,24.90
2016,06,05,12,09,24.90
2016,06,05,12,10,25.00
2016,06,05,12,11,25.10
2016,06,05,12,12,25.20
2016,06,05,12,13,25.20
2016,06,05,12,14,25.30
2016,06,05,12,15,25.30
2016,06,05,12,16,25.40
2016,06,05,12,17,25.40
2016,06,05,12,18,25.40
2016,06,05,12,19,25.50
2016,06,05,12,20,25.50
2016,06,05,12,21,25.50
2016,06,05,12,22,25.50
2016,06,05,12,23,25.50
2016,06,05,12,24,25.50
2016,06,05,12,25,25.50
2016,06,05,12,26,25.50
2016,06,05,12,27,25.60
2016,06,05,12,28,25.60
2016,06,05,12,29,25.70
2016,06,05,12,30,25.80
2016,06,05,12,31,25.90
2016,06,05,12,32,26.00
2016,06,05,12,33,26.10
2016,06,05,12,34,26.10
2016,06,05,12,35,26.00
2016,06,05,12,36,26.00
2016,06,05,12,37,26.10
2016,06,05,12,38,26.10
2016,06,05,12,39,26.10
2016,06,05,12,40,26.10
2016,06,05,12,41,26.10
2016,06,05,12,42,26.10
2016,06,05,12,43,26.20
2016,06,05,12,44,26.30
2016,06,05,12,45,26.30
2016,06,05,12,46,26.30
2016,06,05,12,47,26.30
2016,06,05,12,48,26.30
2016,06,05,12,49,26.30
2016,06,05,12,50,26.30
2016,06,05,12,51,26.30
2016,06,05,12,52,26.40
2016,06,05,12,53,26.50
2016,06,05,12,54,26.50
2016,06,05,12,55,26.60
2016,06,05,12,56,26.60
2016,06,05,12,57,26.70
2016,06,05,12,58,26.80
2016,06,05,12,59,26.90
2016,06,05,13,00,27.00
2016,06,05,13,01,27.10
2016,06,05,13,02,27.10
2016,06,05,13,03,27.10
2016,06,05,13,04,27.20
2016,06,05,13,05,27.20
2016,06,05,13,06,27.20
2016,06,05,13,07,27.20
2016,06,05,13,08,27.20
2016,06,05,13,09,27.20
2016,06,05,13,10,27.20
2016,06,05,13,11,27.20
2016,06,05,13,12,27.30
2016,06,05,13,13,27.30
2016,06,05,13,14,27.30
2016,06,05,13,15,27.30
2016,06,05,13,16,27.40
2016,06,05,13,17,27.40
2016,06,05,13,18,27.40
2016,06,05,13,19,27.40
2016,06,05,13,20,27.50
2016,06,05,13,21,27.50
2016,06,05,13,22,27.50
2016,06,05,13,23,27.50
2016,06,05,13,24,27.60
2016,06,05,13,25,27.70
2016,06,05,13,26,27.70
2016,06,05,13,27,27.70
2016,06,05,13,28,27.80
2016,06,05,13,29,27.80
2016,06,05,13,30,27.80
2016,06,05,13,31,27.80
2016,06,05,13,32,27.80
2016,06,05,13,33,27.80
2016,06,05,13,34,27.80
2016,06,05,13,35,27.80
2016,06,05,13,36,27.90
2016,06,05,13,37,28.00
2016,06,05,13,38,28.00
2016,06,05,13,39,28.10
2016,06,05,13,40,28.00
2016,06,05,13,41,28.00
2016,06,05,13,42,27.90
2016,06,05,13,43,27.80
2016,06,05,13,44,27.70
2016,06,05,13,45,27.70
2016,06,05,13,46,27.70
2016,06,05,13,47,27.70
2016,06,05,13,48,27.70
2016,06,05,13,49,27.80
2016,06,05,13,50,27.90
2016,06,05,13,51,28.00
2016,06,05,13,52,28.10
2016,06,05,13,53,28.20
2016,06,05,13,54,28.20
2016,06,05,13,55,28.20
2016,06,05,13,56,28.20
2016,06,05,13,57,28.30
2016,06,05,13,58,28.30
2016,06,05,13,59,28.30
2016,06,05,14,00,28.40
2016,06,05,14,01,28.40
2016,06,05,14,02,28.40
2016,06,05,14,03,28.40
2016,06,05,14,04,28.40
2016,06,05,14,05,28.40
2016,06,05,14,06,28.40
2016,06,05,14,07,28.50
2016,06,05,14,08,28.60
2016,06,05,14,09,28.70
2016,06,05,14,10,28.90
2016,06,05,14,11,29.00
2016,06,05,14,12,29.10
2016,06,05,14,13,29.20
2016,06,05,14,14,29.20
2016,06,05,14,15,29.10
2016,06,05,14,16,29.00
2016,06,05,14,17,29.00
2016,06,05,14,18,28.90
2016,06,05,14,19,28.90
2016,06,05,14,20,28.90
2016,06,05,14,21,28.90
2016,06,05,14,22,28.90
2016,06,05,14,23,28.90
2016,06,05,14,24,29.00
2016,06,05,14,25,29.00
2016,06,05,14,26,29.10
2016,06,05,14,27,29.20
2016,06,05,14,28,29.30
2016,06,05,14,29,29.30
2016,06,05,14,30,29.30
2016,06,05,14,31,29.30
2016,06,05,14,32,29.30
2016,06,05,14,33,29.30
2016,06,05,14,34,29.30
2016,06,05,14,35,29.30
2016,06,05,14,36,29.20
2016,06,05,14,37,29.10
2016,06,05,14,38,29.10
2016,06,05,14,39,29.10
2016,06,05,14,40,29.10
2016,06,05,14,41,29.10
2016,06,05,14,42,29.10
2016,06,05,14,43,29.10
2016,06,05,14,44,29.20
2016,06,05,14,45,29.20
2016,06,05,14,46,29.20
2016,06,05,14,47,29.20
2016,06,05,14,48,29.30
2016,06,05,14,49,29.40
2016,06,05,14,50,29.50
2016,06,05,14,51,29.50
2016,06,05,14,52,29.60
2016,06,05,14,53,29.60
2016,06,05,14,54,29.60
2016,06,05,14,55,29.60
2016,06,05,14,56,29.60
2016,06,05,14,57,29.60
2016,06,05,14,58,29.60
2016,06,05,14,59,29.60
2016,06,05,15,00,29.60
2016,06,05,15,01,29.60
2016,06,05,15,02,29.60
2016,06,05,15,03,29.60
2016,06,05,15,04,29.70
2016,06,05,15,05,29.80
2016,06,05,15,06,29.90
2016,06,05,15,07,30.00
2016,06,05,15,08,30.00
2016,06,05,15,09,30.00
2016,06,05,15,10,30.00
2016,06,05,15,11,30.10
2016,06,05,15,12,30.10
2016,06,05,15,13,30.10
2016,06,05,15,14,30.00
2016,06,05,15,15,29.90
2016,06,05,15,16,29.90
2016,06,05,15,17,29.90
2016,06,05,15,18,29.90
2016,06,05,15,19,29.90
2016,06,05,15,20,29.80
2016,06,05,15,21,29.80
2016,06,05,15,22,29.80
2016,06,05,15,23,29.80
2016,06,05,15,24,29.80
2016,06,05,15,25,29.90
2016,06,05,15,26,29.90
2016,06,05,15,27,30.00
2016,06,05,15,28,30.10
2016,06,05,15,29,30.10
2016,06,05,15,30,30.10
2016,06,05,15,31,30.10
2016,06,05,15,32,30.10
2016,06,05,15,33,30.20
2016,06,05,15,34,30.20
2016,06,05,15,35,30.20
2016,06,05,15,36,30.20
2016,06,05,15,37,30.20
2016,06,05,15,38,30.10
2016,06,05,15,39,30.10
2016,06,05,15,40,30.20
2016,06,05,15,41,30.10
2016,06,05,15,42,30.20
2016,06,05,15,43,30.20
2016,06,05,15,44,30.20
2016,06,05,15,45,30.30
2016,06,05,15,46,30.30
2016,06,05,15,47,30.40
2016,06,05,15,48,30.50
2016,06,05,15,49,30.50
2016,06,05,15,50,30.50
2016,06,05,15,51,30.50
2016,06,05,15,52,30.60
2016,06,05,15,53,30.60
2016,06,05,15,54,30.60
2016,06,05,15,55,30.60
2016,06,05,15,56,30.70
2016,06,05,15,57,30.80
2016,06,05,15,58,30.80
2016,06,05,15,59,30.90
2016,06,05,16,00,30.90
2016,06,05,16,01,30.90
2016,06,05,16,02,30.80
2016,06,05,16,03,30.80
2016,06,05,16,04,30.80
2016,06,05,16,05,30.70
2016,06,05,16,06,30.70
2016,06,05,16,07,30.60
2016,06,05,16,08,30.50
2016,06,05,16,09,30.50
2016,06,05,16,10,30.40
2016,06,05,16,11,30.40
2016,06,05,16,12,30.40
2016,06,05,16,13,30.40
2016,06,05,16,14,30.40
2016,06,05,16,15,30.40
2016,06,05,16,16,30.40
2016,06,05,16,17,30.40
2016,06,05,16,18,30.40
2016,06,05,16,19,30.50
2016,06,05,16,20,30.50
2016,06,05,16,21,30.60
2016,06,05,16,22,30.60
2016,06,05,16,23,30.50
2016,06,05,16,24,30.50
2016,06,05,16,25,30.40
2016,06,05,16,26,30.40
2016,06,05,16,27,30.40
2016,06,05,16,28,30.40
2016,06,05,16,29,30.40
2016,06,05,16,30,30.40
2016,06,05,16,31,30.30
2016,06,05,16,32,30.30
2016,06,05,16,33,30.30
2016,06,05,16,34,30.30
2016,06,05,16,35,30.30
2016,06,05,16,36,30.20
2016,06,05,16,37,30.20
2016,06,05,16,38,30.10
2016,06,05,16,39,30.10
2016,06,05,16,40,30.10
2016,06,05,16,41,30.10
2016,06,05,16,42,30.10
2016,06,05,16,43,30.10
2016,06,05,16,44,30.10
2016,06,05,16,45,30.10
2016,06,05,16,46,30.10
2016,06,05,16,47,30.10
2016,06,05,16,48,30.10
2016,06,05,16,49,30.20
2016,06,05,16,50,30.20
2016,06,05,16,51,30.30
2016,06,05,16,52,30.30
2016,06,05,16,53,30.30
2016,06,05,16,54,30.30
2016,06,05,16,55,30.40
2016,06,05,16,56,30.40
2016,06,05,16,57,30.40
2016,06,05,16,58,30.40
2016,06,05,16,59,30.50
2016,06,05,17,00,30.50
2016,06,05,17,01,30.60
2016,06,05,17,02,30.60
2016,06,05,17,03,30.60
2016,06,05,17,04,30.60
2016,06,05,17,05,30.60
2016,06,05,17,06,30.60
2016,06,05,17,07,30.60
2016,06,05,17,08,30.60
2016,06,05,17,09,30.60
2016,06,05,17,10,30.60
2016,06,05,17,11,30.60
2016,06,05,17,12,30.60
2016,06,05,17,13,30.60
2016,06,05,17,14,30.60
2016,06,05,17,15,30.60
2016,06,05,17,16,30.60
2016,06,05,17,17,30.70
2016,06,05,17,18,30.70
2016,06,05,17,19,30.70
2016,06,05,17,20,30.80